Flag for Germany Weather past 2 weeks in Bamberg, Bavaria, Germany

Now
48 °F

Partly sunny.


Feels Like: 45 °F
Forecast: 37 / 52 °F
Wind: 8 mph from West

Location: Bamberg

Current Time: Mar 27, 2015 at 12:17:41 PM

Latest Report: Mar 27, 2015 at 12:00 PM


Visibility: 13 mi

Pressure: 30.02 "Hg

Humidity: 57%

Dew point: 34 °F

Location of BambergLocation

Historic Weather in Bamberg — Graph

°F

Bamberg temperature yesterday

Maximum temperature yesterday: 47 °F (at 5:00 PM)
Minimum temperature yesterday: 43 °F (at 2:00 AM)
Average temperature yesterday: 45 °F

Past Weeks' High & Low Weather Summary

 TemperatureHumidityPressure
High67 °F (Mar 25, 3:00 PM)96% (Mar 13, 4:00 AM)30.46 "Hg (Mar 13, 4:00 AM)
Low22 °F (Mar 13, 7:00 AM)19% (Mar 20, 4:00 PM)29.56 "Hg (Mar 25, 5:00 PM)
Average42 °F69%30.13 "Hg
* Reported Mar 12 11:00 AM — Mar 27 11:00 AM, Bamberg, Weather by CustomWeather, © 2015

Note: Actual official high and low records may vary slightly from our data, if they occured in-between our weather recording intervals... More about our weather records

Advertising

Bamberg weather history for previous 24 hours

 ConditionsComfort  
Time TempWeatherWind HumidityBarometerVisibility
11:00 AM
Fri, Mar 27
45 °FOvercast.6 mph72%30.03 "Hg11 mi
10:00 AM45 °FOvercast.5 mph76%30.01 "Hg8 mi
9:00 AM44 °FDrizzle. Overcast.5 mph81%30.00 "Hg6 mi
8:00 AM43 °FOvercast.3 mph84%29.97 "Hg6 mi
7:00 AM42 °FOvercast.3 mph85%29.95 "Hg6 mi
6:00 AM42 °FPartly sunny.3 mph86%29.93 "Hg6 mi
5:00 AM42 °FPassing clouds.3 mph86%29.91 "Hg7 mi
4:00 AM41 °FPassing clouds.5 mph86%29.89 "Hg7 mi
3:00 AM41 °FDrizzle. Overcast.3 mph88%29.88 "Hg6 mi
2:00 AM41 °FPassing clouds.2 mph88%29.88 "Hg6 mi
1:00 AM41 °FDrizzle. Overcast.3 mph86%29.88 "Hg7 mi
12:00 AM41 °FLight rain. Overcast.3 mph84%29.88 "Hg4 mi
11:00 PM
Thu, Mar 26
44 °FLight freezing rain. Overcast.5 mph75%29.87 "Hg5 mi
10:00 PM44 °FOvercast.2 mph75%29.85 "Hg4 mi
9:00 PM44 °FOvercast.2 mph74%29.84 "Hg4 mi
8:00 PM45 °FOvercast.3 mph73%29.83 "Hg4 mi
7:00 PM46 °FOvercast.3 mph71%29.82 "Hg4 mi
6:00 PM47 °FOvercast.2 mph69%29.80 "Hg4 mi
5:00 PM47 °FOvercast.2 mph67%29.79 "Hg4 mi
4:00 PM47 °FOvercast.2 mph70%29.79 "Hg3 mi
3:00 PM47 °FOvercast.3 mph70%29.80 "Hg3 mi
2:00 PM46 °FOvercast.2 mph73%29.80 "Hg3 mi
1:00 PM45 °FOvercast.5 mph75%29.81 "Hg2 mi
12:00 PM46 °FOvercast.3 mph77%29.80 "Hg2 mi
Weather by CustomWeather, © 2015

See weather overviewHow to use our weather pages